TimeAKDT,TemperatureF,Dew PointF,Humidity,Sea Level PressureIn,VisibilityMPH,Wind Direction,Wind SpeedMPH,Gust SpeedMPH,PrecipitationIn,Events,Conditions,WindDirDegrees,DateUTC
12:16 AM,51.8,46.4,82,29.91,10.0,NE,4.6,-,N/A,,Overcast,40,2013-09-14 08:16:00
12:36 AM,51.8,46.4,82,29.90,10.0,NE,5.8,-,N/A,,Overcast,50,2013-09-14 08:36:00
12:56 AM,51.8,48.2,88,29.90,10.0,NE,6.9,-,N/A,,Overcast,50,2013-09-14 08:56:00
1:16 AM,51.8,48.2,88,29.90,10.0,NNE,4.6,-,N/A,,Overcast,30,2013-09-14 09:16:00
1:36 AM,51.8,48.2,88,29.90,10.0,NE,5.8,-,N/A,,Mostly Cloudy,50,2013-09-14 09:36:00
1:56 AM,51.8,46.4,82,29.90,10.0,NE,4.6,-,N/A,,Mostly Cloudy,40,2013-09-14 09:56:00
2:16 AM,51.8,46.4,82,29.90,10.0,Calm,Calm,-,N/A,,Mostly Cloudy,0,2013-09-14 10:16:00
2:36 AM,51.8,46.4,82,29.90,10.0,Calm,Calm,-,N/A,,Partly Cloudy,0,2013-09-14 10:36:00
2:56 AM,50.0,46.4,87,29.90,10.0,ENE,3.5,-,N/A,,Clear,70,2013-09-14 10:56:00
3:16 AM,50.0,46.4,87,29.90,10.0,Calm,Calm,-,N/A,,Scattered Clouds,0,2013-09-14 11:16:00
3:36 AM,50.0,46.4,87,29.90,10.0,Calm,Calm,-,N/A,,Overcast,0,2013-09-14 11:36:00
3:56 AM,48.2,44.6,87,29.89,10.0,Calm,Calm,-,N/A,,Partly Cloudy,0,2013-09-14 11:56:00
4:16 AM,48.2,44.6,87,29.89,10.0,Calm,Calm,-,N/A,,Scattered Clouds,0,2013-09-14 12:16:00
4:36 AM,48.2,44.6,87,29.88,10.0,Calm,Calm,-,N/A,,Overcast,0,2013-09-14 12:36:00
4:56 AM,46.4,44.6,93,29.88,10.0,Calm,Calm,-,N/A,,Scattered Clouds,0,2013-09-14 12:56:00
5:16 AM,44.6,42.8,93,29.88,10.0,Calm,Calm,-,N/A,,Clear,0,2013-09-14 13:16:00
5:36 AM,46.4,44.6,93,29.88,10.0,Calm,Calm,-,N/A,,Scattered Clouds,0,2013-09-14 13:36:00
5:56 AM,46.4,44.6,93,29.88,10.0,Calm,Calm,-,N/A,,Scattered Clouds,0,2013-09-14 13:56:00
6:16 AM,44.6,42.8,93,29.88,10.0,Calm,Calm,-,N/A,,Scattered Clouds,0,2013-09-14 14:16:00
6:36 AM,44.6,41.0,87,29.88,10.0,Calm,Calm,-,N/A,,Scattered Clouds,0,2013-09-14 14:36:00
6:56 AM,46.4,42.8,87,29.88,10.0,SE,3.5,-,N/A,,Mostly Cloudy,130,2013-09-14 14:56:00
7:16 AM,48.2,44.6,87,29.87,10.0,Calm,Calm,-,N/A,,Overcast,0,2013-09-14 15:16:00
7:36 AM,46.4,44.6,93,29.88,10.0,ESE,3.5,-,N/A,,Mostly Cloudy,120,2013-09-14 15:36:00
7:56 AM,48.2,44.6,87,29.88,10.0,East,4.6,-,N/A,,Mostly Cloudy,90,2013-09-14 15:56:00
8:16 AM,48.2,44.6,87,29.88,10.0,Calm,Calm,-,N/A,,Scattered Clouds,0,2013-09-14 16:16:00
8:36 AM,46.4,44.6,93,29.87,10.0,Calm,Calm,-,N/A,,Mostly Cloudy,0,2013-09-14 16:36:00
8:56 AM,46.4,44.6,93,29.88,10.0,ESE,3.5,-,N/A,,Partly Cloudy,120,2013-09-14 16:56:00
9:16 AM,46.4,44.6,93,29.89,10.0,Calm,Calm,-,N/A,,Clear,0,2013-09-14 17:16:00
9:36 AM,48.2,46.4,93,29.89,10.0,Calm,Calm,-,N/A,,Clear,0,2013-09-14 17:36:00
9:56 AM,51.8,46.4,82,29.89,10.0,ENE,5.8,-,N/A,,Clear,60,2013-09-14 17:56:00
10:16 AM,51.8,46.4,82,29.89,10.0,NNE,6.9,-,N/A,,Clear,30,2013-09-14 18:16:00
10:36 AM,53.6,44.6,72,29.89,10.0,NE,6.9,-,N/A,,Clear,50,2013-09-14 18:36:00
10:56 AM,53.6,46.4,77,29.89,10.0,NE,8.1,-,N/A,,Clear,40,2013-09-14 18:56:00
11:16 AM,55.4,46.4,72,29.89,10.0,NE,8.1,-,N/A,,Clear,50,2013-09-14 19:16:00
11:36 AM,55.4,44.6,67,29.88,10.0,NNE,5.8,-,N/A,,Clear,30,2013-09-14 19:36:00
11:56 AM,57.2,44.6,63,29.88,10.0,NE,9.2,-,N/A,,Clear,50,2013-09-14 19:56:00
12:16 PM,57.2,46.4,67,29.87,10.0,NE,4.6,-,N/A,,Clear,40,2013-09-14 20:16:00
12:36 PM,57.2,46.4,67,29.87,10.0,North,6.9,-,N/A,,Clear,10,2013-09-14 20:36:00
12:56 PM,59.0,44.6,59,29.87,10.0,North,5.8,-,N/A,,Clear,10,2013-09-14 20:56:00
1:16 PM,59.0,44.6,59,29.87,10.0,North,4.6,-,N/A,,Clear,360,2013-09-14 21:16:00
1:36 PM,60.8,44.6,55,29.86,10.0,NE,9.2,-,N/A,,Clear,40,2013-09-14 21:36:00
1:56 PM,60.8,44.6,55,29.86,10.0,ENE,8.1,-,N/A,,Clear,60,2013-09-14 21:56:00
2:16 PM,60.8,44.6,55,29.86,10.0,ENE,9.2,-,N/A,,Clear,60,2013-09-14 22:16:00
2:36 PM,62.6,44.6,52,29.85,10.0,NNE,8.1,-,N/A,,Clear,30,2013-09-14 22:36:00
2:56 PM,62.6,44.6,52,29.85,10.0,NE,8.1,-,N/A,,Clear,50,2013-09-14 22:56:00
3:16 PM,62.6,44.6,52,29.86,10.0,North,8.1,-,N/A,,Clear,10,2013-09-14 23:16:00
3:36 PM,62.6,44.6,52,29.85,10.0,NE,9.2,-,N/A,,Clear,40,2013-09-14 23:36:00
3:56 PM,62.6,44.6,52,29.85,10.0,NE,9.2,-,N/A,,Clear,50,2013-09-14 23:56:00
4:16 PM,62.6,44.6,52,29.85,10.0,NE,6.9,-,N/A,,Clear,50,2013-09-15 00:16:00
4:36 PM,62.6,44.6,52,29.85,10.0,NNE,4.6,-,N/A,,Clear,20,2013-09-15 00:36:00
4:56 PM,62.6,42.8,48,29.84,10.0,North,6.9,-,N/A,,Clear,10,2013-09-15 00:56:00
5:16 PM,62.6,42.8,48,29.84,10.0,NNE,4.6,-,N/A,,Clear,20,2013-09-15 01:16:00
5:36 PM,64.4,42.8,45,29.84,10.0,NE,4.6,-,N/A,,Clear,50,2013-09-15 01:36:00
5:56 PM,64.4,42.8,45,29.84,10.0,North,5.8,-,N/A,,Clear,360,2013-09-15 01:56:00
6:16 PM,64.4,42.8,45,29.84,10.0,North,5.8,-,N/A,,Clear,10,2013-09-15 02:16:00
6:36 PM,62.6,42.8,48,29.84,10.0,North,5.8,-,N/A,,Clear,360,2013-09-15 02:36:00
6:56 PM,62.6,42.8,48,29.84,10.0,NE,6.9,-,N/A,,Clear,40,2013-09-15 02:56:00
7:16 PM,62.6,42.8,48,29.84,10.0,NNE,4.6,-,N/A,,Clear,30,2013-09-15 03:16:00
7:36 PM,62.6,44.6,52,29.84,10.0,NE,4.6,-,N/A,,Clear,50,2013-09-15 03:36:00
7:56 PM,62.6,44.6,52,29.84,10.0,Calm,Calm,-,N/A,,Clear,0,2013-09-15 03:56:00
8:16 PM,57.2,44.6,63,29.85,10.0,Calm,Calm,-,N/A,,Clear,0,2013-09-15 04:16:00
8:36 PM,53.6,44.6,72,29.85,10.0,Calm,Calm,-,N/A,,Clear,0,2013-09-15 04:36:00
8:56 PM,53.6,44.6,72,29.86,10.0,Calm,Calm,-,N/A,,Clear,0,2013-09-15 04:56:00
9:16 PM,51.8,44.6,76,29.86,10.0,Calm,Calm,-,N/A,,Clear,0,2013-09-15 05:16:00
9:36 PM,51.8,44.6,76,29.86,10.0,Calm,Calm,-,N/A,,Clear,0,2013-09-15 05:36:00
9:56 PM,48.2,42.8,82,29.86,10.0,Calm,Calm,-,N/A,,Clear,0,2013-09-15 05:56:00
10:16 PM,48.2,44.6,87,29.87,10.0,Calm,Calm,-,N/A,,Clear,0,2013-09-15 06:16:00
10:36 PM,48.2,42.8,82,29.87,10.0,Calm,Calm,-,N/A,,Clear,0,2013-09-15 06:36:00
10:56 PM,46.4,41.0,81,29.87,10.0,Calm,Calm,-,N/A,,Clear,0,2013-09-15 06:56:00
11:16 PM,46.4,42.8,87,29.87,10.0,Calm,Calm,-,N/A,,Clear,0,2013-09-15 07:16:00
11:36 PM,44.6,39.2,81,29.87,10.0,ENE,3.5,-,N/A,,Clear,70,2013-09-15 07:36:00
11:56 PM,44.6,41.0,87,29.87,10.0,Calm,Calm,-,N/A,,Clear,0,2013-09-15 07:56:00